Regional Weather Roundup
Issued by NWS

Home | Current Version | Previous Version | Text Only | Print | Product List | Glossary Off
Versions: 1 2 3 4 5 6 7 8 9 10 11 12 13 14 15 16 17 18 19 20 21 22 23 24 25 26 27 28 29 30 31 32 33 34 35 36 37 38 39 40 41 42 43 44 45 46 47 48 49 50

000
ASUS45 KCYS 241610
RWRWY

WYOMING REGIONAL WEATHER ROUNDUP
NATIONAL WEATHER SERVICE CHEYENNE WY
1000 AM MDT WED AUG 24 2016

NOTE:  "FAIR" INDICATES FEW OR NO CLOUDS BELOW 12,000 FEET
WITH NO SIGNIFICANT WEATHER AND/OR OBSTRUCTIONS TO VISIBILITY.

WYZ001-241700-
YELLOWSTONE NATIONAL PARK

CITY           SKY/WX    TMP DP  RH WIND       PRES   REMARKS
LK YELLOWSTONE   N/A     53  31  42 VRB6      30.35S
W YELLOWSTONE  NOT AVBL

$$
WYZ002>013-054>058-071-098>099-241700-
NORTHERN WYOMING

CITY           SKY/WX    TMP DP  RH WIND       PRES   REMARKS
JACKSON        SUNNY     46  25  42 CALM      30.28F SMOKE
CODY           FAIR      55  43  62 NE9       30.31S
GREYBULL       FAIR      61  40  45 E7G17     30.24S
WORLAND        FAIR      63  39  41 NW8       30.25F
SHERIDAN       FAIR      63  44  50 NW10      30.26S
BUFFALO        FAIR      59  42  53 N13       30.29S
GILLETTE       FAIR      59  45  59 N12       30.26S
HULETT         FAIR      59  45  58 W7        30.27R
NEWCASTLE      FAIR      61  39  44 NW13G20   30.25S

$$
WYZ014>020-022>026-101>103-241700-
CENTRAL WYOMING

CITY           SKY/WX    TMP DP  RH WIND       PRES   REMARKS
BIG PINEY      FAIR      53  20  27 SW3       30.30S
PINEDALE       FAIR      55  21  26 NW7       30.29F
DUBOIS         FAIR      54  27  35 E7        30.32F
LANDER         FAIR      60  37  42 VRB6      30.28S
RIVERTON       FAIR      57  36  45 SE3       30.29F
CASPER         FAIR      59  39  47 E10       30.28F
DOUGLAS        FAIR      62  38  40 NE6       30.28S

$$
WYZ021-027>030-104>119-241700-
SOUTHERN WYOMING

CITY           SKY/WX    TMP DP  RH WIND       PRES   REMARKS
EVANSTON       FAIR      63  23  21 SW14      30.27S
FORT BRIDGER   FAIR      61  21  21 N5        30.30S
ROCK SPRINGS   FAIR      59  25  27 NE10      30.27S
DIXON          FAIR      65  39  39 CALM      30.28F
RAWLINS        FAIR      61  28  28 E7        30.28F
SARATOGA       FAIR      59  34  38 NE8       30.29F
LARAMIE        FAIR      62  32  32 NE7       30.30S
CHEYENNE       FAIR      58  44  60 E9        30.29R
TORRINGTON     FAIR      66  35  31 E10       30.22R
PINE BLUFFS    CLOUDY    55  45  67 E12       30.27F

$$



USA.gov is the U.S. government's official web portal to all federal, state and local government web resources and services.